Regional Weather Roundup
Issued by NWS

Home | Current Version | Previous Version | Text Only | Print | Product List | Glossary Off
Versions: 1 2 3 4 5 6 7 8 9 10 11 12 13 14 15 16 17 18 19 20 21 22 23 24 25 26 27 28 29 30 31 32 33 34 35 36 37 38 39 40 41 42 43 44 45 46 47 48 49 50

000
ASUS43 KDMX 290601
RWRIA

WEATHER ROUNDUP FOR IOWA
NATIONAL WEATHER SERVICE DES MOINES IA
100 AM CDT WED MAR 29 2017

NOTE: "FAIR" INDICATES FEW OR NO CLOUDS BELOW 12,000 FEET WITH NO
SIGNIFICANT WEATHER AND/OR OBSTRUCTIONS TO VISIBILITY.

* - THESE STATIONS ARE NOT NWS STATIONS...THUS NOT UNDER NWS
QUALITY CONTROL.  THEY ALSO DO NOT REPORT WEATHER SUCH
AS PRECIPITATION OR FOG.

IAZ001>003-012>014-020>022-031>034-043>046-290700-
   NORTHWEST IOWA

CITY           SKY/WX    TMP DP  RH WIND       PRES   REMARKS
CARROLL *      CLOUDY    45  45 100 NE7       30.10F
CHEROKEE *     CLOUDY    43  42  95 N5        30.12F
DENISON *      CLOUDY    45  43  93 E7G13     30.12R
LE MARS *      CLOUDY    46  43  87 NE6       30.13F
ORANGE CITY *  CLOUDY    45  43  93 CALM      30.13F
SHELDON *      CLOUDY    39  37  93 CALM      30.13R
SIOUX CITY     CLOUDY    48  42  80 NE7       30.11F
6HR MIN TEMP:  47; 6HR MAX TEMP:  57;

SPENCER        MOCLDY    43  39  86 S5        30.14S
6HR MIN TEMP:  43; 6HR MAX TEMP:  55;

STORM LAKE *   MOCLDY    43  41  93 E8        30.12F
$$

IAZ055>058-069>071-079>083-090>094-290700-
   SOUTHWEST IOWA

CITY           SKY/WX    TMP DP  RH WIND       PRES   REMARKS
ATLANTIC *     CLOUDY    48  43  81 E6        30.10R
AUDUBON *      CLOUDY    46  43  87 E8        30.11R
CLARINDA *     CLOUDY    50  46  87 NE8       30.08F
COUNCIL BLFS * CLOUDY    46  46 100 E8        30.09S
CRESTON *      CLOUDY    48  45  87 E13       30.09R
HARLAN  *      CLOUDY    48  45  87 E8        30.14R
LAMONI         CLOUDY    49  44  83 E9G17     30.07F
6HR MIN TEMP:  49; 6HR MAX TEMP:  52;

RED OAK *      CLOUDY    50  45  81 E8        30.09S
SHENANDOAH *   CLOUDY    50  46  87 NE6       30.08F
$$

IAZ047>049-059>061-072>074-084-290700-
   CENTRAL IOWA

CITY           SKY/WX    TMP DP  RH WIND       PRES   REMARKS
AMES           MOCLDY    45  44  97 NE5       30.12F
6HR MIN TEMP:  43; 6HR MAX TEMP:  50;

ANKENY *       CLOUDY    48  45  87 E6        30.12F
BOONE *        MOCLDY    45  45 100 E9        30.11F
CHARITON *     CLOUDY    48  45  87 E12       30.09F
DES MOINES     CLOUDY    49  45  86 E9        30.11F
6HR MIN TEMP:  49; 6HR MAX TEMP:  52;

GRINNELL*      MOCLDY    43  40  89 E7        30.16R
MARSHALLTOWN   PTCLDY    43  40  89 E8        30.15R
6HR MIN TEMP:  41; 6HR MAX TEMP:  50;

NEWTON *       CLOUDY    45  43  93 E10       30.13S
PELLA *        PTCLDY    46  43  88 E6        30.14S
PERRY *        CLOUDY    47  44  88 E9        30.10F
$$

IAZ004>006-015-016-023>025-035-036-290700-
   NORTH CENTRAL IOWA

CITY           SKY/WX    TMP DP  RH WIND       PRES   REMARKS
ALGONA *       CLOUDY    46  43  87 SE5       30.16S
CLARION *      CLOUDY    41  41 100 E6        30.16S
ESTHERVILLE    PTCLDY    41  39  93 E8        30.15R
6HR MIN TEMP:  40; 6HR MAX TEMP:  53;

FORT DODGE *   CLOUDY    45  39  81 NE6       30.15F
MASON CITY     CLOUDY    41  36  82 CALM      30.18R
6HR MIN TEMP:  40; 6HR MAX TEMP:  55;

WEBSTER CITY * CLOUDY    45  43  93 NE6       30.13S
IOWA FALLS *     N/A     44  40  87 E5        30.16S
$$

IAZ007>011-017>019-026>030-037>042-050>054-066-290700-
   NORTHEAST IOWA

CITY           SKY/WX    TMP DP  RH WIND       PRES   REMARKS
CEDAR RAPIDS   PTCLDY    39  38  96 E7        30.15R WCI  34
6HR MIN TEMP:  38; 6HR MAX TEMP:  50;

CHARLES CITY * MOCLDY    45  41  87 E3        30.17R
CLINTON *      CLEAR     37  36  96 E10       30.18F WCI  30
DECORAH *      PTCLDY    43  39  87 E5        30.17R
DUBUQUE        CLOUDY    40  37  89 E6        30.18S
6HR MIN TEMP:  36; 6HR MAX TEMP:  48;

MONTICELLO *   PTCLDY    37  37 100 NE5       30.17S WCI  34
OELWEIN *      PTCLDY    41  39  93 E3        30.18R
WATERLOO       PTCLDY    40  37  89 E3        30.17R
6HR MIN TEMP:  39; 6HR MAX TEMP:  54;

$$

IAZ064-065-067-068-078-290700-
   EAST CENTRAL IOWA

CITY           SKY/WX    TMP DP  RH WIND       PRES   REMARKS
DAVENPORT      CLEAR     38  36  92 NE9       30.16F WCI  31
6HR MIN TEMP:  36; 6HR MAX TEMP:  47;

IOWA CITY      CLOUDY    43  38  82 NE5       30.17R
6HR MIN TEMP:  43; 6HR MAX TEMP:  52;

MUSCATINE *    CLEAR     39  36  87 NE5       30.16S
QUAD CITIES    MOCLDY    37  35  92 E6        30.16F WCI  32
6HR MIN TEMP:  34; 6HR MAX TEMP:  50;

$$

IAZ062-063-075>077-085>089-095>099-290700-
   SOUTHEAST IOWA

CITY           SKY/WX    TMP DP  RH WIND       PRES   REMARKS
BURLINGTON     CLEAR     44  41  89 E7        30.13R
6HR MIN TEMP:  44; 6HR MAX TEMP:  51;

FAIRFIELD *    CLOUDY    45  41  87 E7        30.14R
FORT MADISON * MOCLDY    46  45  93 E6        30.15R
KEOKUK *       CLOUDY    48  43  81 E7G14     30.13R
OSKALOOSA *      N/A     44  41  91 E6        30.14R
CENTERVILLE *  CLOUDY    48  46  93 E10       30.11F
OTTUMWA        CLOUDY    47  44  90 E10       30.13R
6HR MIN TEMP:  47; 6HR MAX TEMP:  51;

WASHINGTON *   CLOUDY    39  39 100 NE7       30.16R WCI  34
$$

ABBREVIATIONS USED IN REMARKS
   TC - TEMPERATURES IN CELSIUS
  WCI - WIND CHILL INDEX
   HX - HEAT INDEX
  VSB - VISIBILITY
$$





USA.gov is the U.S. government's official web portal to all federal, state and local government web resources and services.